Weather in Anzorey

Russia / The Kabardino-Balkar Republic     43°21′16″N   43°56′24″E
temp.,
°C
wind,
m/s
gust,
m/s
humid.,
%
clouds,
%
prec.,
mm/h
press.,
hPa
HPBL,
m
28 june, tue
tue2800:00+17wsw1179100 0.1 101114
03:00+16wsw227623 0.1 101135
06:00+18wsw117531 0.0 101161
09:00+21ne226864 0.0 1011610
12:00+24ene226437 0.1 1010954
15:00+24ene23715 3.8 1010480
18:00+21sw2279100 7.6 101121
21:00+18wsw2291100 12.1 101344
29 june, wed
wed2900:00+18w118751 0.9 101312
03:00+16sw22902 1.0 101228
06:00+17wsw22861 0.1 101357
09:00+23ne21620 0.1 1012721
12:00+25ne325530 0.0 10121545
15:00+24se126885 1.1 1012310
18:00+20wsw358287 2.2 101394
21:00+19wsw3480100 2.3 101362
30 june, thu
thu3000:00+17ssw118217 0.0 101312
03:00+16wsw22830 0.0 101315
06:00+17nnw11800 0.0 101465
09:00+21ne227343 0.0 1014796
12:00+25ene335823 0.1 10121496
15:00+25ese235677 0.1 10111466
18:00+21wsw2280100 3.0 101221
21:00+18wsw228579 3.2 101327
1 july, fri
fri100:00+16wsw11870 0.0 101311
03:00+15wsw11870 0.0 101312
06:00+17wnw118423 0.0 101360
09:00+21ne226343 0.0 1013759
12:00+21ne436190 0.0 1013936
15:00+22ese325675 0.1 10141205
18:00+19sw237994 0.2 1014167
21:00+18wsw227699 0.2 101530
2 july, sat
sat200:00+15sw2278100 0.0 101533
03:00+15sw1175100 0.0 101513
06:00+17sw1175100 0.0 101653
09:00+20e1163100 0.1 1016515
12:00+20e226299 0.0 1017526
15:00+22se2349100 0.0 10161014
18:00+21sse1166100 0.0 1017180
21:00+16sw227013 0.0 101716